Location: Whispering Pines Observatory
(39.4020°N, 104.7430°W)
Time: 02:06:27
(UTC-06:00)

MOS 1 Rocket - Visible Passes

Search period start: 02 July 2015 00:00
Search period end: 12 July 2015 00:00
Orbit: 615 x 833 km, 97.4° (Epoch: 01 July)

Date Brightness Start Highest point End Pass type
(mag) Time Alt. Az. Time Alt. Az. Time Alt. Az.
02 Jul 5.8 21:09:39 10° SW 21:12:35 17° W 21:15:25 10° NW visible
04 Jul 5.8 21:10:29 10° SW 21:13:23 17° W 21:16:09 10° NW visible
06 Jul 5.8 21:11:21 10° SW 21:14:10 16° W 21:16:52 10° NW visible
08 Jul 5.9 21:12:12 10° SW 21:14:57 16° W 21:17:36 10° NW visible
10 Jul 5.9 21:13:03 10° SW 21:15:46 15° W 21:18:22 10° NW visible
